Location: Newark
(12.4436°N, 0.6167°W)
Time: 05:10:16
(UTC+00:00)

A-11 Canister half - Visible Passes

Search period start: 14 December 2019 00:00
Search period end: 24 December 2019 00:00
Orbit: 1526 x 1683 km, 47.3° (Epoch: 12 December)

Date Brightness Start Highest point End Pass type
(mag) Time Alt. Az. Time Alt. Az. Time Alt. Az.
14 Dec 9.7 03:39:47 40° N 03:39:47 40° N 03:46:00 10° NNE visible
14 Dec 10.5 05:38:19 10° WNW 05:42:55 14° NNW 05:47:32 10° N visible
15 Dec 10.2 03:20:19 28° NNE 03:20:19 28° NNE 03:24:23 10° NNE visible
15 Dec 10.4 05:18:41 13° NW 05:21:06 15° NNW 05:26:12 10° N visible
16 Dec 10.7 03:00:39 18° NNE 03:00:39 18° NNE 03:02:45 10° NNE visible
16 Dec 10.4 04:59:00 16° NW 04:59:18 16° NNW 05:04:49 10° N visible
17 Dec 11.1 02:40:49 11° NE 02:40:49 11° NE 02:41:08 10° NE visible
17 Dec 10.5 04:39:10 16° NNW 04:39:10 16° NNW 04:43:25 10° N visible
18 Dec 10.6 04:19:11 15° N 04:19:11 15° N 04:21:59 10° N visible
19 Dec 10.8 03:59:07 13° N 03:59:07 13° N 04:00:32 10° N visible
20 Dec 11.0 03:38:58 10° N 03:38:58 10° N 03:39:04 10° N visible
